Location: Orion
(34.7154°N, 89.6520°W)
Time: 09:09:58
(UTC+00:00)

Daily predictions for brighter satellites

Satellite Brightness Start Highest point End
(mag) Time Altitude Azimuth Time Altitude Azimuth Time Altitude Azimuth
Lacrosse 4 Rocket 4.1 12:05:09 10° NNE 12:07:25 15° NE 12:09:41 10° E
Cosmos 1315 Rocket 2.8 12:05:20 10° S 12:09:02 79° E 12:12:46 10° N
Cosmos 2233 Rocket 4.5 12:04:18 10° S 12:10:22 68° E 12:16:31 10° NNE
Hubble Space Telescope 2.3 12:10:46 10° SW 12:13:58 26° S 12:17:09 10° ESE
Cosmos 2360 Rocket 2.3 12:08:47 10° SW 12:14:14 52° WNW 12:19:42 10° N
Cosmos 2278 4.5 12:10:03 10° WSW 12:14:58 30° WNW 12:19:54 10° N
USA 229 DEB 3.6 12:09:53 10° SSW 12:15:37 80° ESE 12:21:58 10° NNE
USA 229 3.6 12:09:58 10° SSW 12:15:42 79° ESE 12:22:02 10° NNE
DELTA 2 R/B (1) 3.8 12:11:41 10° W 12:17:10 60° NNW 12:22:41 10° ENE
ATLAS 3B R/B 3.3 12:10:15 10° SSW 12:17:35 74° ESE 12:25:23 10° NE
Cosmos 1356 Rocket 3.3 12:14:33 10° S 12:18:22 81° E 12:22:13 10° N
Cosmos 2333 4.3 12:14:48 10° SW 12:20:24 59° WNW 12:26:00 10° NNE
Cosmos 1802 Rocket 4.1 12:16:49 10° SSW 12:22:52 56° W 12:29:03 10° N
